ラーソン彗星

261P/Larson (2025)

English version
Home page
Updated on March 25, 2025

---------------------------------------------------------------------

・ プロフィール

・ 軌道要素

Epoch 2025 Dec. 31.0 TT = JDT 2461040.5                                         
T 2025 Dec. 27.42473 TT                                 Rudenko                 
q   2.0142086            (2000.0)            P               Q                  
n   0.15125454     Peri.   67.36592     +0.99478340     +0.02561489             
a   3.4887012      Node   291.05075     -0.06590243     +0.90022343             
e   0.4226480      Incl.    6.07340     +0.07786440     +0.43467420             
P   6.52                                                                        
From 972 observations 2005 Nov. 19-2020 Feb. 12, mean residual 0".8.            
     Nongravitational parameters A1 = +1.01, A2 = +0.0865.                      

・ 星図

・ 光度変化

        m1 = 2.5 + 5 logΔ + 40.0 log r(t - 40)

---------------------------------------------------------------------

軌道要素はM.P.E.C. 2021-F20に掲載されたものです。
星図はステラナビゲータ Ver.11 (アストロアーツ) で作成したものです。
光度グラフはComet for Windowsで作成したものです。

---------------------------------------------------------------------

Copyright(C) Seiichi Yoshida (comet@aerith.net). All rights reserved.